Location: Alincthun
(50.7310°N, 1.8022°E)
Time: 03:37:57
(UTC+00:00)

Cosmos 1943 Rocket - Pass Details

Date: 17 February 2020
Orbit: 814 x 842 km, 71.0° (Epoch: 29 March)

Event Time Altitude Azimuth Distance (km) Brightness Sun altitude
Exits shadow 06:13:03 - 315° (NW) 2,963 4.6 -8.4°
Reaches altitude 10° 06:14:54 10° 304° (NW) 2,412 4.0 -8.1°
Maximum altitude 06:18:45 20° 260° (W) 1,814 3.4 -7.5°
Drops below altitude 10° 06:22:36 10° 215° (SW) 2,400 4.3 -6.9°
Sets 06:25:37 0° 198° (SSW) 3,328 5.2 -6.4°
